Dewpoint
20 19 18 16 15 16 13 13 14 14 15 16 17 19 20 22 24 23 23 22 21 20 21 21 21 21 22 20 20 19 20 20 20 20 20 21 20 20 21 19 20 19
21 21 20 18 20 20 16 15 15 16 17 18 20 21 23 22 23 22 21 20 20 19 20 20 20 20 20 19 19 19 19 19 19 23 20 19 19 19 19 19 19 20
22 21 20 18 18 17 17 16 17 17 18 20 22 22 23 22 22 21 20 19 18 18 19 19 19 20 20 20 20 19 16 16 16 19 21 19 19 17 18 18 18 19
21 20 20 19 19 18 18 17 18 19 20 21 21 23 23 23 21 20 20 21 18 18 18 18 19 19 20 20 20 18 16 16 17 18 17 19 20 18 18 19 21 18
21 21 22 21 20 19 18 17 18 19 19 20 22 22 22 20 18 18 18 18 18 18 19 19 19 19 19 18 18 18 17 14 16 16 14 14 15 16 16 18 17 15
21 22 22 21 20 19 17 17 18 18 20 21 21 21 19 17 17 17 17 17 18 18 18 18 16 16 15 14 12 13 12 11 14 14 12 10 9 15 18 18 16 13
21 21 21 21 19 18 17 18 18 19 19 20 20 18 17 16 17 17 17 17 17 18 17 16 15 13 13 12 11 12 12 13 11 9 7 10 12 9 14 15 15 13
20 20 20 20 18 17 17 18 18 18 19 19 16 17 17 16 16 17 16 16 16 16 15 14 13 11 11 9 9 11 14 15 8 6 6 7 8 7 10 15 12 11
19 19 19 18 17 17 17 17 17 17 19 17 17 18 17 16 16 16 16 15 15 14 14 12 10 8 7 6 5 4 4 7 7 5 5 6 6 6 8 11 10 10
18 18 18 17 16 16 16 16 17 18 18 17 17 17 16 16 16 15 14 13 12 11 9 8 6 5 5 5 4 3 3 4 4 4 5 5 6 6 8 9 10 10
17 17 16 16 16 16 16 16 16 16 16 16 16 15 15 14 14 12 10 10 10 8 6 4 4 4 4 4 4 3 2 3 3 3 4 5 6 7 18 13 11 10
16 16 14 14 15 15 16 16 16 15 15 15 14 14 12 10 9 8 8 7 6 6 4 4 4 3 3 2 2 2 2 2 3 3 4 6 8 9 10 11 11 11
14 14 13 13 14 14 15 15 14 14 14 13 13 11 9 8 7 7 7 5 5 4 3 3 2 2 2 2 2 2 2 1 2 4 6 8 10 11 12 12 11 11
13 12 11 12 12 12 13 13 13 13 12 12 12 9 8 7 6 6 5 5 4 4 3 4 2 2 3 3 2 2 3 2 3 5 8 11 13 13 13 13 12 12
11 10 10 11 12 12 13 13 12 11 12 12 11 9 8 6 6 6 5 5 4 4 4 4 3 2 2 2 2 2 2 3 11 14 14 14 15 15 15 14 14 14
9 11 10 11 11 12 13 13 12 11 12 12 12 9 8 7 6 6 6 6 6 4 4 3 2 1 11 15 15 5 11 14 16 15 15 15 15 15 14 15 15 14
9 10 10 11 12 13 16 15 14 14 15 14 13 11 11 10 8 8 7 7 6 5 3 3 2 3 15 18 18 17 11 14 15 15 15 15 15 14 14 14 14 15
10 11 11 13 15 17 18 18 17 17 17 17 16 14 13 12 9 8 7 6 6 5 3 3 2 14 18 21 21 21 22 16 15 14 14 16 15 15 15 15 15 14
11 12 13 16 17 18 19 19 19 18 17 17 15 15 14 12 9 9 7 7 5 4 4 4 3 17 19 21 22 23 24 22 16 16 15 15 16 15 15 15 14 14
13 16 15 16 17 19 19 19 18 18 17 17 16 16 15 14 12 11 9 6 5 4 5 4 4 17 21 22 23 23 23 24 16 17 15 17 18 17 16 15 15 14
15 15 16 17 19 20 19 18 18 18 18 18 17 16 15 14 11 10 9 9 8 6 5 5 4 17 20 22 23 23 24 25 17 17 18 18 18 17 16 16 15 15
16 17 17 18 19 20 19 19 18 18 18 17 16 15 14 11 8 7 9 9 8 7 6 5 4 17 19 21 23 24 24 19 17 17 17 17 17 16 16 16 14 13
16 17 18 19 19 19 19 19 19 17 17 17 15 15 13 11 11 10 10 9 8 7 6 5 5 15 19 21 22 24 25 16 16 16 16 16 15 14 14 13 12 12
16 19 19 20 20 19 19 19 18 18 16 15 14 13 13 12 11 10 9 9 8 7 7 6 6 12 19 21 22 23 23 15 16 16 15 14 12 13 13 12 12 15
19 19 20 20 20 20 20 19 18 17 16 15 15 14 14 12 10 10 8 7 8 7 12 8 6 10 18 21 22 23 23 15 15 13 13 12 11 11 12 12 12 14
20 21 21 20 21 20 20 19 18 16 16 15 14 14 13 11 10 10 9 8 7 6 7 10 6 4 10 20 22 23 24 16 14 13 12 11 11 10 9 9 11 11